Welcome to the New NWS' Forecast!
Most changes are behind the scenes, but click here for differences you might notice.
Latest weather observations around

Birmingham, Birmingham International Airport (KBHM)

Using English Units (Switch to International System of Units)
Date/ Time (CST) Wind (mph) Vis. (mi) Weather Sky Cond. Temp (°F) Rel. Humidity Wind Chill (°F) Heat Index (°F) Pressure Precip. (in)
Air Dwpt 6 hour Altimeter (inHg) Sea level (inHg) 1 hr 3 hr 6 hr
Max Min
Jan 23 12:53 WSW 15 10 Mostly Clear FEW250 53 30     41%     30.08 30.07      
Jan 23 11:53 W 13 10 Mostly Clear FEW048 FEW250 52 29     41%     30.1 30.09      
Jan 23 10:53 W 11 10 Mostly Clear FEW048 FEW250 51 29     42%     30.11 30.1      
Jan 23 09:53 W 10 10 Mostly Clear FEW250 48 30     50% 43   30.1 30.09      
Jan 23 08:53 WSW 13 10 Mostly Clear FEW250 46 30     53% 40   30.08 30.08      
Jan 23 07:53   10 Mostly Clear FEW250 44 29     55%     30.06 30.05      
Jan 23 06:53 W 7 10 Mostly Clear FEW250 41 28     60% 36   30.04 30.03      
Jan 23 05:53 W 7 10 Clear CLR 43 29     57% 39   30.02 30.01      
Jan 23 04:53 W 7 10 Clear CLR 44 29     55% 40   30 30      
Jan 23 03:53 W 9 10 Clear CLR 45 29     53% 40   29.99 29.98      
Jan 23 02:53 WSW 7 10 Clear CLR 45 31     58% 41   29.98 29.97      
Jan 23 01:53 WSW 7 10 Clear CLR 47 32     56% 44   29.98 29.97      
Jan 23 00:53 WSW 8 10 Clear CLR 50 33     52% 47   29.96 29.95      
Jan 22 23:53 W 13 10 Clear CLR 53 36     52%     29.95 29.94      
Jan 22 22:53 W 11 10 Clear CLR 55 40     57%     29.95 29.94      
Jan 22 21:53   10 Mostly Clear FEW060 60 52     75%     29.93 29.91      
Jan 22 21:36 SW 9 10 Mostly Clear FEW010 FEW060 59 57     93%     29.92        
Jan 22 20:53 SSW 9 10 Mostly Cloudy BKN010 60 57     90%     29.92 29.91      
Jan 22 20:17   9 Cloudy OVC009 60 58     93%     29.92        
Jan 22 19:53   10 Mostly Cloudy BKN010 BKN015 60 57     90%     29.91 29.9      
Jan 22 19:43 SSW 8 10 Mostly Cloudy BKN010 BKN015 59 57     93%     29.91        
Jan 22 19:24 SW 5 10 Mostly Clear FEW009 60 57     90%     29.9        
Jan 22 18:53 S 7 10 Mostly Clear FEW075 58 56     93%     29.9 29.89      
Jan 22 18:43 S 6 10 Partly Cloudy FEW009 SCT070 59 57     93%     29.9        
Jan 22 17:53 S 9 10 Mostly Cloudy BKN009 BKN075 60 58     93%     29.88 29.87     0
Jan 22 17:29 S 7 10 Mostly Cloudy BKN009 BKN065 61 58     90%     29.87        
Jan 22 17:21 S 8 10 Cloudy SCT009 OVC060 61 58     90%     29.87        
Jan 22 16:53 SSE 8 10 Cloudy SCT011 OVC060 61 58     90%     29.87 29.86      
Jan 22 16:26 SSE 9 10 Cloudy SCT012 OVC065 61 57     87%     29.88        
Jan 22 15:53 S 6 10 Cloudy OVC012 61 57     87%     29.88 29.87      
Jan 22 15:19 S 9 10 Cloudy BKN012 OVC060 61 57     87%     29.87        
Jan 22 14:53 SSE 13 10 Mostly Cloudy FEW030 BKN070 BKN085 62 57     84%     29.86 29.85 0 0  
Jan 22 13:53 SE 14 8 Light Rain FEW013 BKN080 BKN100 60 57     90%     29.88 29.86 0    
Jan 22 12:53 SSE 11 3 Rain and Fog/Mist SCT015 BKN080 OVC090 58 56     93%     29.92 29.91 0    
Jan 22 12:48   3 Heavy Rain and Fog/Mist SCT013 BKN040 OVC090 57 55     94%     29.92   0    
Jan 22 12:42 SE 11 3 Heavy Rain and Fog/Mist SCT013 BKN019 OVC080 58 55     90%     29.94   0    
Jan 22 12:37 S 9 1.5 Heavy Rain and Fog/Mist BKN013 BKN019 OVC028 58 55     90%     29.96   0    
Jan 22 11:53 S 7 10 Cloudy BKN013 OVC023 60 53     78%     29.97 29.96      
Jan 22 11:47 S 8 10 Cloudy BKN013 BKN019 OVC043 61 54     77%     29.98        
Jan 22 11:41 SSE 11 10 Cloudy BKN015 BKN019 OVC120 61 53     75%     29.98        
Jan 22 11:34 SSE 8 10 Cloudy SCT018 BKN036 OVC120 61 53     75%     29.99        
Jan 22 10:53 S 9 10 Cloudy BKN016 BKN042 OVC050 60 51     72%     30.01 30      
Jan 22 09:53 SSE 10 10 Cloudy FEW038 BKN100 OVC250 59 50     72%     30.03 30.02      
Jan 22 08:53 SSE 13 10 Cloudy OVC036 58 48     70%     30.03 30.02      
Jan 22 08:28 SSE 11 10 Cloudy OVC030 58 48     70%     30.03        
Jan 22 07:53 SSE 11 10 Cloudy FEW022 BKN029 OVC090 58 47     67%     30.03 30.02      
Jan 22 06:53 S 13 10 Cloudy BKN025 OVC110 57 44     62%     30.04 30.03      
Jan 22 06:38 SSE 9 10 Cloudy BKN025 OVC110 57 42     57%     30.04        
Jan 22 05:53 SE 6 10 Cloudy FEW110 OVC250 55 40     57%     30.03 30.02      
Jan 22 04:53 3 10 Mostly Cloudy BKN250 56 40     55%     30.05 30.03      
Jan 22 03:53 S 10 10 Mostly Cloudy BKN250 58 39     49%     30.04 30.03      
Jan 22 02:53 S 8 10 Mostly Cloudy BKN250 58 40     51%     30.07 30.05      
Jan 22 01:53 SSE 8 10 Clear CLR 59 41     51%     30.08 30.06      
Jan 22 00:53 S 8 10 Mostly Cloudy BKN250 60 42     51%     30.07 30.05      
Jan 21 23:53 SSE 9 10 Cloudy OVC250 60 42     51%     30.09 30.08      
Jan 21 22:53 SSE 8 10 Cloudy OVC250 61 43     52%     30.12 30.11      
Jan 21 21:53 SE 5 10 Mostly Cloudy BKN250 60 43     53%     30.13 30.12      
Jan 21 20:53 ESE 3 10 Partly Cloudy SCT250 58 43     57%     30.14 30.13      
Jan 21 19:53 ESE 3 10 Partly Cloudy SCT250 55 42     62%     30.14 30.14      
Jan 21 18:53 SE 3 10 Partly Cloudy SCT250 60 43     53%     30.15 30.15      
Jan 21 17:53 SE 6 10 Partly Cloudy SCT250 63 43     48%     30.14 30.14      
Jan 21 16:53 SSE 6 10 Partly Cloudy SCT250 66 42     42%     30.15 30.14      
Jan 21 15:53 SE 9 10 Mostly Clear FEW250 68 42     39%     30.15 30.14      
Jan 21 14:53 SSE 7 10 Clear CLR 69 42     38%     30.16 30.15      
Jan 21 13:53 S 8 10 Clear CLR 69 42     38%     30.16 30.15      
Jan 21 12:53 SSW 7 10 Clear CLR 67 41     39%     30.18 30.17      
Jan 21 11:53 S 9 10 Clear CLR 66 41     40%     30.23 30.22      
Jan 21 10:53 SE 8 10 Mostly Clear FEW085 62 40     44%     30.27 30.26      
Jan 21 09:53 6 10 Mostly Cloudy BKN085 59 40     49%     30.29 30.28      
Jan 21 08:53 SE 3 10 Mostly Clear FEW100 54 40     59%     30.28 30.27      
Jan 21 07:53 Calm 10 Mostly Clear FEW100 43 38     82%     30.28 30.28      
Jan 21 06:53 Calm 10 Clear CLR 38 34     85%     30.26 30.26      
Jan 21 05:53 ESE 3 10 Clear CLR 38 35     89% 36   30.25 30.25      
Jan 21 04:53 E 3 10 Clear CLR 39 35     86% 37   30.24 30.24      
Jan 21 03:53 Calm 10 Clear CLR 41 36     82%     30.23 30.22      
Jan 21 02:53 SE 5 10 Clear CLR 46 37     71% 44   30.23 30.22      
Jan 21 01:53 SSE 5 10 Clear CLR 42 36     79% 39   30.23 30.22      
Jan 21 00:53 SE 6 10 Clear CLR 47 37     68% 44   30.23 30.23      
Notice The following observation data may not be complete
Jan 20 23:53 SSE 3 10 Clear CLR   37      %     30.24 30.23      
Jan 20 22:53 SSE 5 10 Clear CLR 50 38     63% 48   30.25 30.24      
Jan 20 21:53 Calm 10 Clear CLR 50 38     63%     30.25 30.25      
Jan 20 20:53 SSE 6 10 Clear CLR 53 38     56%     30.25 30.24      
Jan 20 19:53 Calm 10 Clear CLR 49 37     63%     30.26 30.26      
Jan 20 18:53 Calm 10 Partly Cloudy SCT080 50 37     61%     30.26 30.26      
Jan 20 17:53 SSE 5 10 Mostly Clear FEW250 56 38     51%     30.25 30.24      
Jan 20 16:53 SSE 5 10 Mostly Clear FEW250 60 37     42%     30.23 30.23      
Jan 20 15:53 S 7 10 Mostly Clear FEW250 62 37     39%     30.23 30.22      
Jan 20 14:53 SW 7 10 Mostly Clear FEW250 63 36     37%     30.23 30.22      
Jan 20 13:53 WSW 9 10 Clear CLR 63 33     33%     30.25 30.24      
Jun 12 03:53 SSE 5 10 Mostly Clear FEW040 74 71     91%   75 30.15 30.13      
Jun 11 23:53 SSE 5 10 Mostly Clear FEW050 79 70     74%   82 30.15 30.12      
Jun 11 07:53 SE 9 10 Partly Cloudy SCT065 SCT250 75 66     74%   76 30.17 30.14      
Jun 10 13:53 ESE 9 10 Mostly Cloudy SCT060 BKN075 86 58     39%   85 30.09 30.06      
Jun 10 11:53 3 10 Partly Cloudy SCT070 82        %     30.11 30.09      
Jun 08 22:53 Calm 10 Clear CLR 68 59     73%     29.95 29.93      
Jun 08 20:53 N 7 10 Mostly Clear FEW250 70 58     66%     29.91 29.89      
Jun 07 18:53   10 Mostly Clear FEW065 FEW250 79 54     42%   79 29.87 29.85      
Jun 06 03:11 NE 5 10 Mostly Cloudy FEW007 FEW022 BKN028 71 70     96%   72 29.81        
Jun 06 02:53 NNE 5 10 Partly Cloudy SCT120 71 70     96%   72 29.81 29.78      
Jun 05 19:53 Calm 10 Light Rain FEW020 SCT120 OVC250 72 70     93%   73 29.82 29.8 0    
Jun 05 14:53 Calm 10 Cloudy BKN065 BKN100 OVC250 75 70     84%   76 29.84 29.82 0